Location: ???????
(55.3754°N, 39.3545°E)
Time: 17:11:23
(UTC+00:00)

Cosmos 2084 Rocket - Pass Details

Date: 14 April 2026
Orbit: 530 x 580 km, 62.8° (Epoch: 16 May)

Event Time Altitude Azimuth Distance (km) Brightness Sun altitude
Exits shadow 19:50:44 41° 239° (WSW) 808 4.0 -22.2°
Maximum altitude 19:52:07 83° 323° (NW) 560 3.3 -22.3°
Drops below altitude 10° 19:56:17 10° 52° (NE) 1,846 6.2 -22.5°
Sets 19:58:32 0° 54° (NE) 2,753 7.1 -22.6°
